Sigfox identifier Datetime Temperature Humidity SNR
003A7976 2019-03-23 08:28:11 20.9 20 22.7
003A7976 2019-03-23 07:57:04 20.8 20 22.6
003A7976 2019-03-23 07:25:59 20.8 20 22.6
003A7976 2019-03-23 06:54:55 20.8 19 22.5
003A7976 2019-03-23 06:23:51 20.8 19 22.4
003A7976 2019-03-23 05:52:47 20.8 19 22.4
003A7976 2019-03-23 05:21:40 20.8 19 22.3
003A7976 2019-03-23 04:50:36 20.8 19 22.3
003A7976 2019-03-23 04:19:35 20.8 19 22.2
003A7976 2019-03-23 03:48:29 20.8 19 21.9
003A7976 2019-03-23 03:17:25 20.8 19 21.8
003A7976 2019-03-23 02:46:21 20.9 19 21.6
003A7976 2019-03-23 02:15:16 20.9 19 21.5
003A7976 2019-03-23 01:44:12 20.9 19 21.6
003A7976 2019-03-23 01:13:08 21 18 21.6
003A7976 2019-03-23 00:42:05 21 18 21.7
003A7976 2019-03-23 00:11:01 21.1 18 21.4
003A7976 2019-03-22 23:39:58 21.1 18 21.3
003A7976 2019-03-22 23:08:21 21.2 18 21.1
003A7976 2019-03-22 22:37:18 21.3 18 20.9
003A7976 2019-03-22 22:06:14 21.4 18 20.6
003A7976 2019-03-22 21:35:09 21.4 17 20.6
003A7976 2019-03-22 21:04:07 21.5 17 20.4
003A7976 2019-03-22 20:33:04 21.6 16 20.4
003A7976 2019-03-22 20:01:59 21.6 16 20.3
003A7976 2019-03-22 19:30:55 21.7 16 20.4
003A7976 2019-03-22 18:59:51 21.8 16 20.3
003A7976 2019-03-22 18:28:46 21.9 15 20.2
003A7976 2019-03-22 17:57:43 22.1 15 20.4
003A7976 2019-03-22 17:26:39 22.2 13 20.2
003A7976 2019-03-22 16:55:35 22.4 13 20.3
003A7976 2019-03-22 16:24:29 22.5 12 20.3
003A7976 2019-03-22 15:53:25 22.7 12 20.3
003A7976 2019-03-22 15:22:20 22.8 13 20.5
003A7976 2019-03-22 14:51:16 23.1 12 20.7
003A7976 2019-03-22 14:20:12 23.4 12 20.9
003A7976 2019-03-22 13:49:08 22.5 14 21
003A7976 2019-03-22 13:18:04 21.3 15 21
003A7976 2019-03-22 12:47:02 21.2 16 21
003A7976 2019-03-22 12:15:58 21.1 16 20.7
003A7976 2019-03-22 11:44:55 21 16 21
003A7976 2019-03-22 11:13:51 21 17 21.2
003A7976 2019-03-22 10:42:49 21 17 21.4
003A7976 2019-03-22 10:11:43 21 17 21.6
003A7976 2019-03-22 09:40:40 21 18 21.5
003A7976 2019-03-22 09:09:36 21 18 21.6
003A7976 2019-03-22 08:38:32 20.9 19 21.8
003A7976 2019-03-22 08:07:29 20.8 19 21.9
003A7976 2019-03-22 07:36:24 20.8 21 21.7
003A7976 2019-03-22 07:05:20 20.8 22 21.8
003A7976 2019-03-22 06:34:15 20.8 22 21.8
003A7976 2019-03-22 06:03:10 20.8 22 21.9
003A7976 2019-03-22 05:32:05 20.8 23 21.7
003A7976 2019-03-22 05:01:00 20.8 23 21.6
003A7976 2019-03-22 04:29:55 20.8 23 21.8
003A7976 2019-03-22 03:58:50 20.8 24 21.8
003A7976 2019-03-22 03:27:44 20.8 24 22.8
003A7976 2019-03-22 02:56:39 20.8 25 22.7
003A7976 2019-03-22 02:25:34 20.8 25 22.6
003A7976 2019-03-22 01:54:29 20.8 26 22.4
003A7976 2019-03-22 01:23:26 20.8 26 22.4
003A7976 2019-03-22 00:52:23 20.8 27 22.4
003A7976 2019-03-22 00:21:19 20.8 27 22.4
003A7976 2019-03-21 23:50:19 20.8 28 22.6
003A7976 2019-03-21 23:19:12 20.9 28 22.4
003A7976 2019-03-21 22:48:08 20.9 28 22.4
003A7976 2019-03-21 22:17:05 20.9 28 22.3
003A7976 2019-03-21 21:46:02 21 28 22.4
003A7976 2019-03-21 21:14:24 21 28 22.4
003A7976 2019-03-21 20:43:21 21 28 22.3
003A7976 2019-03-21 20:12:18 21 28 22.3
003A7976 2019-03-21 19:41:15 21 28 22.6
003A7976 2019-03-21 19:10:12 21 28 22.6
003A7976 2019-03-21 18:39:10 21 28 22.4
003A7976 2019-03-21 18:08:08 21.2 28 22.5
003A7976 2019-03-21 17:37:05 21.2 28 22.6
003A7976 2019-03-21 17:06:03 21.2 27 22.7
003A7976 2019-03-21 16:35:02 21.3 27 22.7
003A7976 2019-03-21 16:03:59 21.3 27 22.8
003A7976 2019-03-21 15:32:56 21.3 27 21.9
003A7976 2019-03-21 15:01:53 21.4 26 22.1
003A7976 2019-03-21 14:30:49 21.4 26 22
003A7976 2019-03-21 13:59:45 21.5 26 22.1
003A7976 2019-03-21 13:28:41 21.3 25 22.2
003A7976 2019-03-21 12:57:38 21.3 25 22
003A7976 2019-03-21 12:26:34 21.2 25 22.1
003A7976 2019-03-21 11:55:31 21.2 24 22
003A7976 2019-03-21 11:24:26 21.1 24 21.9
003A7976 2019-03-21 10:53:22 21.1 24 21.9
003A7976 2019-03-21 10:22:17 21.1 24 22.1
003A7976 2019-03-21 09:51:13 21 24 22.1
003A7976 2019-03-21 09:20:08 21 24 22
003A7976 2019-03-21 08:49:04 20.9 24 22.2
003A7976 2019-03-21 08:17:59 20.8 24 22.3
003A7976 2019-03-21 07:46:56 20.8 24 22.3
003A7976 2019-03-21 07:15:51 20.8 24 22.2
003A7976 2019-03-21 06:44:48 20.8 24 21.9
003A7976 2019-03-21 06:13:44 20.8 24 21.8
003A7976 2019-03-21 05:42:41 20.8 24 22.1
003A7976 2019-03-21 05:11:37 20.8 24 22
003A7976 2019-03-21 04:40:33 20.8 25 22
003A7976 2019-03-21 04:09:30 20.8 25 21.8
003A7976 2019-03-21 03:38:26 20.8 25 21.8
003A7976 2019-03-21 03:07:22 20.8 25 21.6
003A7976 2019-03-21 02:36:18 20.7 25 21.6
003A7976 2019-03-21 02:05:13 20.8 25 21.6
003A7976 2019-03-21 01:34:08 20.8 25 21.6
003A7976 2019-03-21 01:03:03 20.8 25 21.5
003A7976 2019-03-21 00:31:58 20.8 25 21.3
003A7976 2019-03-21 00:00:53 20.8 26 21.2
003A7976 2019-03-20 23:29:48 20.8 26 21
003A7976 2019-03-20 22:58:43 20.8 26 20.9
003A7976 2019-03-20 22:27:39 20.8 26 21
003A7976 2019-03-20 21:56:34 20.8 26 20.9
003A7976 2019-03-20 21:25:28 20.8 26 20.9
003A7976 2019-03-20 20:54:23 20.9 26 20.7
003A7976 2019-03-20 20:23:18 20.9 26 20.4
003A7976 2019-03-20 19:52:15 20.9 26 20.2
003A7976 2019-03-20 19:20:39 20.9 26 20.1
003A7976 2019-03-20 18:49:35 20.9 26 20.4
003A7976 2019-03-20 18:18:32 21 26 20.5
003A7976 2019-03-20 17:47:29 21.1 25 21.5
003A7976 2019-03-20 17:16:26 21.1 25 21.6
003A7976 2019-03-20 16:45:23 21.1 25 21.8
003A7976 2019-03-20 16:14:19 21.1 25 22
003A7976 2019-03-20 15:43:15 21.1 25 21.9
003A7976 2019-03-20 15:12:11 21.1 24 22
003A7976 2019-03-20 14:41:06 21.1 23 22
003A7976 2019-03-20 14:10:02 21.1 22 21.8
003A7976 2019-03-20 13:38:58 21.1 22 21.8
003A7976 2019-03-20 13:07:53 21.1 23 22
003A7976 2019-03-20 12:36:47 21.1 23 22
003A7976 2019-03-20 12:05:42 21.2 24 22.3
003A7976 2019-03-20 11:34:38 21.1 23 22.4
003A7976 2019-03-20 11:03:35 21.1 23 22.5
003A7976 2019-03-20 10:32:32 21.1 22 22.6
003A7976 2019-03-20 10:01:30 21 22 22.5
003A7976 2019-03-20 09:30:24 21 22 22.4
003A7976 2019-03-20 08:59:20 20.9 22 22.6
003A7976 2019-03-20 08:28:16 20.8 22 22.8
003A7976 2019-03-20 07:57:11 20.8 23 22.9
003A7976 2019-03-20 07:26:07 20.7 25 22.8
003A7976 2019-03-20 06:55:03 20.8 25 22.9
003A7976 2019-03-20 06:23:58 20.8 25 22.8
003A7976 2019-03-20 05:52:53 20.8 25 22.8
003A7976 2019-03-20 05:21:50 20.8 25 22.8
003A7976 2019-03-20 04:50:45 20.8 26 22.8
003A7976 2019-03-20 04:19:41 20.8 26 22.6
003A7976 2019-03-20 03:48:38 20.8 26 22.4
003A7976 2019-03-20 03:17:33 20.7 26 22.4
003A7976 2019-03-20 02:46:29 20.8 26 22.4
003A7976 2019-03-20 02:15:27 20.8 26 22.4
003A7976 2019-03-20 01:44:23 20.7 27 22.3
003A7976 2019-03-20 01:13:19 20.8 27 22.3
003A7976 2019-03-20 00:42:16 20.8 27 22.4
003A7976 2019-03-20 00:11:12 20.7 27 22.5
003A7976 2019-03-19 23:40:11 20.8 27 22.5
003A7976 2019-03-19 23:09:05 20.8 28 22.2
003A7976 2019-03-19 22:38:01 20.8 28 22.1
003A7976 2019-03-19 22:06:56 20.8 28 22.1
003A7976 2019-03-19 21:35:51 20.9 28 22
003A7976 2019-03-19 21:04:48 20.9 28 22.1
003A7976 2019-03-19 20:33:45 21 28 22
003A7976 2019-03-19 20:02:41 20.9 28 21.9
003A7976 2019-03-19 19:31:37 21 28 21.7
003A7976 2019-03-19 19:00:31 20.9 28 21.6
003A7976 2019-03-19 18:29:24 21 28 21.6
003A7976 2019-03-19 17:58:17 21.1 28 21.3
003A7976 2019-03-19 17:26:39 21.2 28 21.6
003A7976 2019-03-19 16:55:34 21.2 28 21.4
003A7976 2019-03-19 16:24:30 21.2 29 20.2
003A7976 2019-03-19 15:53:25 21.2 28 20.3
003A7976 2019-03-19 15:22:20 21.2 28 20.5
003A7976 2019-03-19 14:51:14 21.2 28 20.4
003A7976 2019-03-19 14:20:09 21.2 28 20.4
003A7976 2019-03-19 13:49:05 21.2 28 20.6
003A7976 2019-03-19 13:17:58 21.2 28 20.7
003A7976 2019-03-19 12:46:52 21.2 28 21.9
003A7976 2019-03-19 12:15:49 21.2 28 21.9
003A7976 2019-03-19 11:44:44 21.2 28 21.7
003A7976 2019-03-19 11:13:38 21.2 28 21.7
003A7976 2019-03-19 10:42:32 21.2 29 21.7
003A7976 2019-03-19 10:11:28 21.1 28 22.7
003A7976 2019-03-19 09:40:21 21.1 29 22.7
003A7976 2019-03-19 09:09:16 20.9 28 22.8
003A7976 2019-03-19 08:38:10 20.8 27 22.8
003A7976 2019-03-19 08:07:05 20.7 27 22.8
003A7976 2019-03-19 07:36:01 20.7 27 22.8
003A7976 2019-03-19 07:04:56 20.7 27 22.7
003A7976 2019-03-19 06:33:52 20.7 27 22.6
003A7976 2019-03-19 06:02:48 20.7 27 22.6
003A7976 2019-03-19 05:31:43 20.7 27 22.6
003A7976 2019-03-19 05:00:40 20.7 27 22.4
003A7976 2019-03-19 04:29:36 20.7 27 22.4
003A7976 2019-03-19 03:58:32 20.7 27 22.4
003A7976 2019-03-19 03:27:30 20.7 27 22.3
003A7976 2019-03-19 02:56:23 20.7 27 22.2
003A7976 2019-03-19 02:25:18 20.7 27 22.1
003A7976 2019-03-19 01:54:13 20.7 27 22
003A7976 2019-03-19 01:23:08 20.7 27 21.9
003A7976 2019-03-19 00:52:05 20.7 27 21.7
003A7976 2019-03-19 00:21:01 20.7 27 21.7
003A7976 2019-03-18 23:49:56 20.7 27 20.4
003A7976 2019-03-18 23:18:52 20.7 27 20.4
003A7976 2019-03-18 22:47:48 20.7 27 20.4
003A7976 2019-03-18 22:16:43 20.8 27 20.2
003A7976 2019-03-18 21:45:38 20.8 27 20.2
003A7976 2019-03-18 21:14:33 20.8 27 18.5
003A7976 2019-03-18 20:43:29 20.9 27 18.7
003A7976 2019-03-18 20:12:26 20.9 26 18.5
003A7976 2019-03-18 19:41:18 20.9 26 18.6
003A7976 2019-03-18 19:10:14 20.9 26 18.5
003A7976 2019-03-18 18:39:08 21 26 18.5
003A7976 2019-03-18 18:08:03 21.1 26 19
003A7976 2019-03-18 17:36:58 21.2 26 19.1
003A7976 2019-03-18 17:05:53 21.3 27 19.3
003A7976 2019-03-18 16:34:50 21.5 27 19.5
003A7976 2019-03-18 16:03:43 21.7 28 19.7
003A7976 2019-03-18 16:01:01 21.8 27 19.6
003A7976 2019-03-18 15:59:08 21.3 28 19.8
003A7976 2019-03-18 15:04:39 20.9 27 19.9
003A7976 2019-03-18 14:33:36 20.8 27 20
003A7976 2019-03-18 14:02:34 20.8 27 20.1
003A7976 2019-03-18 13:30:57 20.8 27 20.2
003A7976 2019-03-18 12:59:53 20.8 27 20.3
003A7976 2019-03-18 12:28:49 20.7 27 20.2
003A7976 2019-03-18 11:57:44 20.7 27 20.4
003A7976 2019-03-18 11:26:41 20.7 27 20.4
003A7976 2019-03-18 10:55:37 20.6 27 20.4
003A7976 2019-03-18 10:24:31 20.7 27 20.5
003A7976 2019-03-18 09:53:28 20.6 27 20.6
003A7976 2019-03-18 09:22:24 20.6 27 20.5
003A7976 2019-03-18 08:51:20 20.6 27 20.3
003A7976 2019-03-18 08:20:16 20.6 27 20.2
003A7976 2019-03-18 07:49:12 20.6 27 20.1
003A7976 2019-03-18 07:18:09 20.6 27 20.1
003A7976 2019-03-18 06:47:06 20.6 27 20
003A7976 2019-03-18 06:16:02 20.6 27 19.6
003A7976 2019-03-18 05:44:59 20.6 27 19.7
003A7976 2019-03-18 05:13:55 20.6 27 19.4
003A7976 2019-03-18 04:42:52 20.6 27 19.2
003A7976 2019-03-18 04:11:48 20.6 27 18.9
003A7976 2019-03-18 03:40:44 20.6 27 18.8
003A7976 2019-03-18 03:09:42 20.6 27 18.8
003A7976 2019-03-18 02:38:40 20.6 26 18.7
003A7976 2019-03-18 02:07:37 20.6 26 18.7
003A7976 2019-03-18 01:36:33 20.6 26 18.6
003A7976 2019-03-18 01:05:31 20.6 26 18.7
003A7976 2019-03-18 00:34:29 20.6 26 18.5
003A7976 2019-03-18 00:03:25 20.6 26 18.5
003A7976 2019-03-17 23:32:23 20.6 26 18.5
003A7976 2019-03-17 23:01:21 20.6 26 18.2
003A7976 2019-03-17 22:30:17 20.6 26 18.4
003A7976 2019-03-17 21:59:13 20.6 26 18.4
003A7976 2019-03-17 21:28:08 20.6 26 18.4
003A7976 2019-03-17 20:57:02 20.6 26 18.4
003A7976 2019-03-17 20:25:58 20.6 26 18.3
003A7976 2019-03-17 19:54:53 20.6 26 18.5
003A7976 2019-03-17 19:23:47 20.6 26 18.5
003A7976 2019-03-17 18:52:43 20.6 26 18.4
003A7976 2019-03-17 18:21:38 20.6 26 18.5
003A7976 2019-03-17 17:50:35 20.6 26 18.5
003A7976 2019-03-17 17:19:30 20.6 26 18.7
003A7976 2019-03-17 16:48:29 20.6 26 18.8
003A7976 2019-03-17 16:17:23 20.6 26 19.1
003A7976 2019-03-17 15:46:21 20.6 26 19.1
003A7976 2019-03-17 15:15:18 20.6 26 19.2
003A7976 2019-03-17 14:44:14 20.6 26 19.3
003A7976 2019-03-17 14:13:11 20.7 27 19.2
003A7976 2019-03-17 13:42:07 20.6 26 19.2
003A7976 2019-03-17 13:11:04 20.6 26 19.3
003A7976 2019-03-17 12:40:00 20.6 27 19.3
003A7976 2019-03-17 12:08:58 20.6 26 19.4
003A7976 2019-03-17 11:37:21 20.6 27 19.3
003A7976 2019-03-17 11:06:16 20.6 27 19.5
003A7976 2019-03-17 10:35:12 20.6 27 19.7
003A7976 2019-03-17 10:04:08 20.6 27 19.5
003A7976 2019-03-17 09:33:05 20.6 27 19.3
003A7976 2019-03-17 09:02:02 20.6 27 19.2
003A7976 2019-03-17 08:30:58 20.6 27 19.2
003A7976 2019-03-17 07:59:53 20.6 27 19.1
003A7976 2019-03-17 07:28:48 20.6 27 18.9
003A7976 2019-03-17 06:57:43 20.6 27 20.7
003A7976 2019-03-17 06:26:37 20.6 27 20.7
003A7976 2019-03-17 05:55:32 20.6 27 20.5
003A7976 2019-03-17 05:24:29 20.6 27 20.6
003A7976 2019-03-17 04:53:25 20.6 27 20.7
003A7976 2019-03-17 04:22:23 20.6 27 20.6
003A7976 2019-03-17 03:51:21 20.6 27 20.5
003A7976 2019-03-17 03:20:17 20.6 27 20.6
003A7976 2019-03-17 02:49:14 20.6 27 20.4
003A7976 2019-03-17 02:18:11 20.6 27 20.3
003A7976 2019-03-17 01:47:08 20.6 27 20.4
003A7976 2019-03-17 01:16:04 20.6 27 20.3
003A7976 2019-03-17 00:44:58 20.6 26 20.3
003A7976 2019-03-17 00:13:52 20.6 26 20.2
003A7976 2019-03-16 23:42:48 20.6 26 20.1
003A7976 2019-03-16 23:11:45 20.6 26 20.1
003A7976 2019-03-16 22:40:40 20.6 26 20.2
003A7976 2019-03-16 22:09:39 20.6 26 20
003A7976 2019-03-16 21:38:34 20.6 26 20
003A7976 2019-03-16 21:07:30 20.6 26 20.2
003A7976 2019-03-16 20:36:26 20.6 26 20.2
003A7976 2019-03-16 20:05:23 20.6 26 20.1
003A7976 2019-03-16 19:34:20 20.6 26 20.1
003A7976 2019-03-16 19:03:16 20.6 26 20.3
003A7976 2019-03-16 18:32:13 20.6 26 20.4
003A7976 2019-03-16 18:01:11 20.6 26 18.7
003A7976 2019-03-16 17:30:08 20.7 26 19
003A7976 2019-03-16 16:59:06 20.6 26 19.2
003A7976 2019-03-16 16:28:04 20.6 26 19.1
003A7976 2019-03-16 15:57:01 20.6 26 18.9
003A7976 2019-03-16 15:25:59 20.7 26 19
003A7976 2019-03-16 14:54:56 20.7 26 19
003A7976 2019-03-16 14:23:53 20.6 26 18.9
003A7976 2019-03-16 13:52:51 20.6 26 19
003A7976 2019-03-16 13:21:48 20.6 26 18.9
003A7976 2019-03-16 12:50:45 20.6 26 19
003A7976 2019-03-16 12:19:41 20.6 26 19
003A7976 2019-03-16 11:48:37 20.6 26 19.1
003A7976 2019-03-16 11:17:33 20.6 26 19.2
003A7976 2019-03-16 10:46:30 20.7 26 19.1
003A7976 2019-03-16 10:15:27 20.7 26 19
003A7976 2019-03-16 09:43:50 20.7 26 19.2
003A7976 2019-03-16 09:12:47 20.7 26 19.3
003A7976 2019-03-16 08:41:45 20.6 26 19.2
003A7976 2019-03-16 08:10:41 20.7 26 19.3
003A7976 2019-03-16 07:39:39 20.7 26 19.4
003A7976 2019-03-16 07:08:37 20.7 26 19.7
003A7976 2019-03-16 06:37:34 20.7 26 19.7
003A7976 2019-03-16 06:06:31 20.7 26 19.9
003A7976 2019-03-16 05:35:29 20.7 26 19.8
003A7976 2019-03-16 05:04:26 20.6 26 19.6
003A7976 2019-03-16 04:33:22 20.7 26 19.4
003A7976 2019-03-16 04:02:20 20.6 26 19.8
003A7976 2019-03-16 03:31:18 20.6 26 19.9
003A7976 2019-03-16 03:00:17 20.7 26 19.9
003A7976 2019-03-16 02:29:13 20.7 26 19.9
003A7976 2019-03-16 01:58:12 20.7 26 20
003A7976 2019-03-16 01:27:09 20.7 26 20.1
003A7976 2019-03-16 00:56:07 20.7 26 20.1
003A7976 2019-03-16 00:25:03 20.7 26 20.2
003A7976 2019-03-15 23:54:01 20.7 26 20.1
003A7976 2019-03-15 23:22:58 20.8 26 20.3
003A7976 2019-03-15 22:51:55 20.7 26 20.2
003A7976 2019-03-15 22:20:52 20.8 26 20.4
003A7976 2019-03-15 21:49:51 20.8 26 20.4
003A7976 2019-03-15 21:18:48 20.8 26 20.5
003A7976 2019-03-15 20:47:47 20.8 26 20.3
003A7976 2019-03-15 20:16:44 20.8 26 20.3
003A7976 2019-03-15 19:45:42 20.8 26 20.2
003A7976 2019-03-15 19:14:40 20.8 26 20.2
003A7976 2019-03-15 18:43:37 20.8 26 20.3
003A7976 2019-03-15 18:12:36 20.8 26 20.1
003A7976 2019-03-15 17:41:34 20.8 26 20.3
003A7976 2019-03-15 17:10:31 20.8 26 20
003A7976 2019-03-15 16:39:28 20.8 26 20.3
003A7976 2019-03-15 16:08:25 20.8 26 20.3
003A7976 2019-03-15 15:37:22 20.8 26 20.4
003A7976 2019-03-15 15:06:19 20.8 26 20.3
003A7976 2019-03-15 14:35:16 20.8 26 20.3
003A7976 2019-03-15 14:04:13 20.8 26 20.3
003A7976 2019-03-15 13:33:11 20.8 26 20.2
003A7976 2019-03-15 13:02:09 20.8 26 20.2
003A7976 2019-03-15 12:31:06 20.8 26 20.1
003A7976 2019-03-15 12:00:03 20.8 26 20.2
003A7976 2019-03-15 11:29:00 20.7 25 20
003A7976 2019-03-15 10:57:58 20.7 25 20
003A7976 2019-03-15 10:26:56 20.7 25 19.8
003A7976 2019-03-15 09:55:53 20.7 25 19.6
003A7976 2019-03-15 09:24:51 20.6 25 19.4
003A7976 2019-03-15 08:53:48 20.6 25 19.5
003A7976 2019-03-15 08:22:45 20.6 24 19.3
003A7976 2019-03-15 07:51:08 20.6 24 19.2
003A7976 2019-03-15 07:20:06 20.6 24 19.3
003A7976 2019-03-15 06:49:04 20.6 24 19.3
003A7976 2019-03-15 06:18:02 20.7 24 19.1
003A7976 2019-03-15 05:47:00 20.7 24 19.2
003A7976 2019-03-15 05:15:58 20.6 24 19.1
003A7976 2019-03-15 04:44:54 20.6 24 19
003A7976 2019-03-15 04:13:52 20.6 24 18.6
003A7976 2019-03-15 03:42:49 20.7 24 18.7
003A7976 2019-03-15 03:11:45 20.7 24 18.6
003A7976 2019-03-15 02:40:41 20.7 24 18.6
003A7976 2019-03-15 02:09:39 20.7 24 18.6
003A7976 2019-03-15 01:38:36 20.7 24 18.8
003A7976 2019-03-15 01:07:34 20.7 24 18.7
003A7976 2019-03-15 00:36:31 20.7 24 18.7
003A7976 2019-03-15 00:05:27 20.7 23 18.7
003A7976 2019-03-14 23:34:24 20.7 23 18.9
003A7976 2019-03-14 23:03:21 20.8 23 19.2
003A7976 2019-03-14 22:32:18 20.7 23 19.2
003A7976 2019-03-14 22:01:15 20.8 23 19.3
003A7976 2019-03-14 21:30:12 20.8 23 19.6
003A7976 2019-03-14 20:59:11 20.8 23 19.8
003A7976 2019-03-14 20:28:07 20.8 23 19.9
003A7976 2019-03-14 19:57:04 20.9 23 20
003A7976 2019-03-14 19:26:01 20.9 23 20.1
003A7976 2019-03-14 18:54:59 20.9 23 20.2
003A7976 2019-03-14 18:23:57 20.9 23 20.3
003A7976 2019-03-14 17:52:55 20.9 23 20.7
003A7976 2019-03-14 17:21:53 21 23 20.8
003A7976 2019-03-14 16:50:49 21 23 20.8
003A7976 2019-03-14 16:19:47 21 23 20.7
003A7976 2019-03-14 15:48:43 21 23 20.9
003A7976 2019-03-14 15:17:39 21 23 20.9
003A7976 2019-03-14 14:46:36 21 23 20.9
003A7976 2019-03-14 14:15:32 20.9 23 21.2
003A7976 2019-03-14 13:44:29 20.9 23 21.1
003A7976 2019-03-14 13:13:26 20.9 23 21.2
003A7976 2019-03-14 12:42:22 20.9 22 21.2
003A7976 2019-03-14 12:11:18 20.8 22 21.3
003A7976 2019-03-14 11:40:16 20.8 22 21.3
003A7976 2019-03-14 11:09:12 20.8 22 22.4
003A7976 2019-03-14 10:38:10 20.7 21 22.4
003A7976 2019-03-14 10:07:07 20.7 21 22.3
003A7976 2019-03-14 09:36:05 20.7 21 22.4
003A7976 2019-03-14 09:05:01 20.6 20 23.3
003A7976 2019-03-14 04:56:06 20.6 18 22.9
003A7976 2019-03-14 04:25:04 20.6 18 22.9
003A7976 2019-03-14 03:54:02 20.6 18 22.8
003A7976 2019-03-14 03:22:59 20.6 18 22.9
003A7976 2019-03-14 02:51:58 20.6 18 22.9
003A7976 2019-03-14 02:20:55 20.6 17 23.6
003A7976 2019-03-14 01:49:52 20.6 17 23.5
003A7976 2019-03-14 01:18:50 20.6 17 23.5
003A7976 2019-03-14 00:47:48 20.6 17 23.5
003A7976 2019-03-14 00:16:47 20.6 17 23.5
003A7976 2019-03-13 23:45:44 20.6 17 23.5
003A7976 2019-03-13 23:14:40 20.6 17 23.5
003A7976 2019-03-13 22:43:37 20.6 17 22.8
003A7976 2019-03-13 22:12:34 20.7 17 22.8
003A7976 2019-03-13 21:41:30 20.7 17 22.8
003A7976 2019-03-13 21:10:27 20.7 17 22.8
003A7976 2019-03-13 20:39:22 20.7 16 21.9
003A7976 2019-03-13 20:08:18 20.8 16 22
003A7976 2019-03-13 19:37:14 20.8 16 22.1
003A7976 2019-03-13 19:06:11 20.8 16 22.2
003A7976 2019-03-13 18:35:09 20.8 16 22.1
003A7976 2019-03-13 18:04:05 20.9 16 22.1
003A7976 2019-03-13 17:33:02 20.9 16 22.3
003A7976 2019-03-13 17:01:58 21 16 22.3
003A7976 2019-03-13 16:30:54 21 16 22.2
003A7976 2019-03-13 15:59:49 20.9 16 22.3
003A7976 2019-03-13 15:28:44 20.9 16 22.4
003A7976 2019-03-13 14:57:40 20.9 16 22.5
003A7976 2019-03-13 14:26:36 20.8 16 22.5
003A7976 2019-03-13 13:55:32 20.8 16 22.5
003A7976 2019-03-13 13:24:27 20.8 16 21.6
003A7976 2019-03-13 12:53:24 20.8 16 21.7
003A7976 2019-03-13 12:22:20 20.8 16 21.9
003A7976 2019-03-13 11:51:16 20.7 16 21.8
003A7976 2019-03-13 11:20:11 20.7 16 21.7
003A7976 2019-03-13 10:49:05 20.7 16 21.8
003A7976 2019-03-13 10:18:00 20.6 16 21.9
003A7976 2019-03-13 09:46:55 20.5 16 21.8
003A7976 2019-03-13 09:15:52 20.3 15 21.9
003A7976 2019-03-13 08:44:48 20.3 15 21.9
003A7976 2019-03-13 08:13:44 20.3 15 21.8
003A7976 2019-03-13 07:42:41 20.3 15 21.8
003A7976 2019-03-13 07:11:36 20.4 16 21.8
003A7976 2019-03-13 06:40:33 20.4 16 21.8
003A7976 2019-03-13 06:09:30 20.4 16 21.7
003A7976 2019-03-13 05:38:26 20.4 16 21.7
003A7976 2019-03-13 05:07:22 20.4 16 21.6
003A7976 2019-03-13 04:36:18 20.4 16 21.6
003A7976 2019-03-13 04:04:42 20.4 16 21.7
003A7976 2019-03-13 03:33:38 20.4 16 21.7
003A7976 2019-03-13 03:02:36 20.5 16 22.6
003A7976 2019-03-13 02:31:33 20.5 16 23.3
003A7976 2019-03-13 02:00:29 20.5 16 23.9
003A7976 2019-03-13 01:29:28 20.5 16 24
003A7976 2019-03-13 00:58:22 20.5 16 24.5
003A7976 2019-03-13 00:27:18 20.5 16 24.4
003A7976 2019-03-12 23:56:15 20.5 16 24.9
003A7976 2019-03-12 23:25:11 20.5 16 24.9
003A7976 2019-03-12 22:54:07 20.6 16 24.9
003A7976 2019-03-12 22:23:04 20.6 16 25.3
003A7976 2019-03-12 21:52:00 20.6 16 25.7
003A7976 2019-03-12 21:20:56 20.6 16 26.2
003A7976 2019-03-12 20:49:52 20.6 16 26.5
003A7976 2019-03-12 20:18:47 20.6 16 26.8
003A7976 2019-03-12 19:47:44 20.7 16 27.1
003A7976 2019-03-12 19:16:40 20.7 16 27.4
003A7976 2019-03-12 18:45:36 20.7 16 27.7
003A7976 2019-03-12 18:14:32 20.7 16 27.9
003A7976 2019-03-12 17:43:28 20.7 16 28.1
003A7976 2019-03-12 17:12:23 20.7 16 28.4
003A7976 2019-03-12 16:41:18 20.8 16 28.6
003A7976 2019-03-12 16:10:14 20.7 16 28.8
003A7976 2019-03-12 15:39:10 20.7 16 29
003A7976 2019-03-12 15:08:06 20.7 16 29.2
003A7976 2019-03-12 14:37:02 20.7 16 29.3
003A7976 2019-03-12 14:05:57 20.7 16 29.3
003A7976 2019-03-12 13:34:54 20.6 16 29.3
003A7976 2019-03-12 13:03:50 20.6 16 29.3
003A7976 2019-03-12 12:32:47 20.6 16 29.5
003A7976 2019-03-12 12:01:43 20.6 16 29.5
003A7976 2019-03-12 11:30:40 20.5 16 29.7
003A7976 2019-03-12 10:59:37 20.5 16 29.7
003A7976 2019-03-12 10:28:34 20.4 16 29.8
003A7976 2019-03-12 09:57:30 20.4 16 30
003A7976 2019-03-12 09:26:27 20.4 16 30
003A7976 2019-03-12 08:55:24 20.3 16 30
003A7976 2019-03-12 08:24:21 20.4 16 29.9
003A7976 2019-03-12 07:53:17 20.4 16 29.9
003A7976 2019-03-12 07:22:12 20.4 16 29.9
003A7976 2019-03-12 06:51:08 20.4 16 29.9
003A7976 2019-03-12 06:20:04 20.4 16 29.9
003A7976 2019-03-12 05:49:01 20.4 16 29.9
003A7976 2019-03-12 05:17:57 20.4 16 29.7
003A7976 2019-03-12 04:46:54 20.4 16 29.7
003A7976 2019-03-12 04:15:51 20.4 16 29.5
003A7976 2019-03-12 03:44:48 20.4 16 29.4
003A7976 2019-03-12 03:13:46 20.5 16 29.2
003A7976 2019-03-12 02:42:42 20.4 17 29
003A7976 2019-03-12 02:11:06 20.5 17 28.8
003A7976 2019-03-12 01:40:03 20.5 17 28.6
003A7976 2019-03-12 01:09:00 20.5 17 28.4
003A7976 2019-03-12 00:37:57 20.5 17 28.2
003A7976 2019-03-12 00:06:54 20.5 17 28
003A7976 2019-03-11 23:35:51 20.6 17 27.7
003A7976 2019-03-11 23:04:48 20.6 17 27.5
003A7976 2019-03-11 22:33:44 20.6 17 27.2
003A7976 2019-03-11 22:02:41 20.6 17 26.9
003A7976 2019-03-11 21:31:38 20.6 17 26.6
003A7976 2019-03-11 21:00:34 20.7 17 26.2
003A7976 2019-03-11 20:29:30 20.7 17 25.8
003A7976 2019-03-11 19:58:26 20.7 17 25.8
003A7976 2019-03-11 19:27:21 20.7 17 25.4
003A7976 2019-03-11 18:56:16 20.7 16 25
003A7976 2019-03-11 18:25:14 20.8 17 24.5
003A7976 2019-03-11 17:54:11 20.8 17 23.9
003A7976 2019-03-11 17:23:08 20.8 17 23.3
003A7976 2019-03-11 16:52:05 20.8 17 23.5
003A7976 2019-03-11 16:21:02 20.7 17 22.8
003A7976 2019-03-11 15:49:59 20.7 17 22.8
003A7976 2019-03-11 15:18:56 20.6 17 22.7
003A7976 2019-03-11 14:47:53 20.6 17 22.7
003A7976 2019-03-11 14:16:51 20.6 17 22.7
003A7976 2019-03-11 13:45:49 20.6 17 22.7
003A7976 2019-03-11 13:14:46 20.5 17 21.8
003A7976 2019-03-11 12:43:43 20.5 17 21.8
003A7976 2019-03-11 12:12:41 20.5 17 21.7
003A7976 2019-03-11 11:41:36 20.4 17 21.7
003A7976 2019-03-11 11:10:32 20.5 17 21.7
003A7976 2019-03-11 10:39:28 20.4 17 21.7
003A7976 2019-03-11 10:08:25 20.4 18 21.7
003A7976 2019-03-11 09:37:21 20.4 18 22.5
003A7976 2019-03-11 09:06:18 20.3 18 22.4
003A7976 2019-03-11 08:35:15 20.4 18 22.6
003A7976 2019-03-11 08:04:12 20.3 18 22.7
003A7976 2019-03-11 07:33:11 20.4 18 22.7
003A7976 2019-03-11 07:02:09 20.4 19 22.7
003A7976 2019-03-11 06:31:07 20.4 19 22.7
003A7976 2019-03-11 06:00:03 20.4 19 22.6
003A7976 2019-03-11 05:29:00 20.4 19 22.6
003A7976 2019-03-11 04:57:57 20.4 19 22.6
003A7976 2019-03-11 04:26:55 20.4 19 22.6
003A7976 2019-03-11 03:55:51 20.4 19 22.4
003A7976 2019-03-11 03:24:49 20.5 19 22.3
003A7976 2019-03-11 02:53:45 20.4 19 22.4
003A7976 2019-03-11 02:22:42 20.4 19 22.4
003A7976 2019-03-11 01:51:40 20.5 19 22.5
003A7976 2019-03-11 01:20:38 20.5 20 22.6
003A7976 2019-03-11 00:49:36 20.5 20 22.5
003A7976 2019-03-11 00:18:01 20.5 20 22.6
003A7976 2019-03-10 23:46:59 20.5 20 22.6
003A7976 2019-03-10 23:15:56 20.5 20 22.5
003A7976 2019-03-10 22:44:51 20.5 20 22.4
003A7976 2019-03-10 22:13:47 20.5 20 22.4
003A7976 2019-03-10 21:42:43 20.5 20 22.4
003A7976 2019-03-10 21:11:39 20.6 20 21.5
003A7976 2019-03-10 20:40:36 20.6 20 21.4
003A7976 2019-03-10 20:09:33 20.6 20 21.1
003A7976 2019-03-10 19:38:29 20.6 21 21.1
003A7976 2019-03-10 19:07:25 20.6 21 21.1
003A7976 2019-03-10 18:36:20 20.7 21 21.1
003A7976 2019-03-10 18:05:15 20.7 21 21.2
003A7976 2019-03-10 17:34:11 20.7 21 21.1
003A7976 2019-03-10 17:03:06 20.7 21 21.1
003A7976 2019-03-10 16:32:01 20.7 22 21.2
003A7976 2019-03-10 16:00:57 20.6 22 21.3
003A7976 2019-03-10 15:29:54 20.6 22 21.5
003A7976 2019-03-10 14:58:50 20.6 23 21.4
003A7976 2019-03-10 14:27:47 20.6 23 21.3
003A7976 2019-03-10 13:56:42 20.6 24 21.5
003A7976 2019-03-10 13:25:39 20.5 24 21.6
003A7976 2019-03-10 12:54:34 20.5 24 21.6
003A7976 2019-03-10 12:23:30 20.5 24 21.5
003A7976 2019-03-10 11:52:26 20.5 24 21.5
003A7976 2019-03-10 11:21:22 20.5 24 21.4
003A7976 2019-03-10 10:50:17 20.5 24 21.3
003A7976 2019-03-10 10:19:14 20.5 24 21.5
003A7976 2019-03-10 09:48:10 20.5 24 21.5
003A7976 2019-03-10 09:17:06 20.5 24 21.5
003A7976 2019-03-10 08:46:04 20.5 24 21.5
003A7976 2019-03-10 08:14:57 20.5 24 21.5
003A7976 2019-03-10 07:43:53 20.6 24 21.6
003A7976 2019-03-10 07:12:48 20.6 24 21.7
003A7976 2019-03-10 06:41:44 20.6 24 21.7
003A7976 2019-03-10 06:10:39 20.5 24 21.7
003A7976 2019-03-10 05:39:36 20.6 24 21.7
003A7976 2019-03-10 05:08:32 20.5 24 21.7
003A7976 2019-03-10 04:37:27 20.5 24 21.7
003A7976 2019-03-10 04:06:21 20.6 24 21.7
003A7976 2019-03-10 03:35:17 20.6 24 21.6
003A7976 2019-03-10 03:04:13 20.6 24 21.5
003A7976 2019-03-10 02:33:09 20.6 24 21.5
003A7976 2019-03-10 02:02:04 20.6 24 21.6
003A7976 2019-03-10 01:31:00 20.6 24 21.6
003A7976 2019-03-10 00:59:55 20.6 24 21.5
003A7976 2019-03-10 00:28:51 20.6 24 21.3
003A7976 2019-03-09 23:57:46 20.6 24 21.3
003A7976 2019-03-09 23:26:42 20.6 24 21.2
003A7976 2019-03-09 22:55:38 20.6 24 21.3
003A7976 2019-03-09 22:24:01 20.6 24 21.6
003A7976 2019-03-09 21:52:56 20.6 23 21.5
003A7976 2019-03-09 21:21:52 20.6 23 21.5
003A7976 2019-03-09 20:50:49 20.7 23 21.3
003A7976 2019-03-09 20:19:45 20.7 23 21.3
003A7976 2019-03-09 19:48:41 20.7 23 21.4
003A7976 2019-03-09 19:17:37 20.7 23 21.5
003A7976 2019-03-09 18:46:34 20.7 23 21.6
003A7976 2019-03-09 18:15:31 20.8 23 21.4
003A7976 2019-03-09 17:44:27 20.8 23 21.4
003A7976 2019-03-09 17:13:24 20.8 23 21.2
003A7976 2019-03-09 16:42:22 20.8 23 21.2
003A7976 2019-03-09 16:11:19 20.8 24 21.3
003A7976 2019-03-09 15:40:16 20.8 24 21.3
003A7976 2019-03-09 15:09:12 20.7 24 21.3
003A7976 2019-03-09 14:38:09 20.7 24 21.4
003A7976 2019-03-09 14:07:05 20.7 24 21.4
003A7976 2019-03-09 13:36:02 20.7 24 21.3
003A7976 2019-03-09 13:04:59 20.6 24 21.2
003A7976 2019-03-09 12:33:55 20.6 24 21
003A7976 2019-03-09 12:02:52 20.6 24 21.1
003A7976 2019-03-09 11:31:48 20.6 24 21.1
003A7976 2019-03-09 11:00:44 20.6 24 21.2
003A7976 2019-03-09 10:29:41 20.6 24 21.2
003A7976 2019-03-09 09:58:38 20.6 25 21.2
003A7976 2019-03-09 09:27:34 20.6 25 21.1
003A7976 2019-03-09 08:56:29 20.6 25 21.1
003A7976 2019-03-09 08:25:24 20.6 25 21.1
003A7976 2019-03-09 07:54:19 20.6 25 21.2
003A7976 2019-03-09 07:23:14 20.6 25 21.3
003A7976 2019-03-09 06:52:10 20.6 26 21.3
003A7976 2019-03-09 06:21:04 20.6 26 21.2
003A7976 2019-03-09 05:50:00 20.7 26 21
003A7976 2019-03-09 05:18:55 20.7 26 21.1
003A7976 2019-03-09 04:47:51 20.7 26 21.2
003A7976 2019-03-09 04:16:47 20.7 26 21.3
003A7976 2019-03-09 03:45:43 20.7 26 22.2
003A7976 2019-03-09 03:14:39 20.7 26 22.2
003A7976 2019-03-09 02:43:34 20.8 26 22.1
003A7976 2019-03-09 02:12:30 20.8 26 22.1
003A7976 2019-03-09 01:41:27 20.7 26 22.1
003A7976 2019-03-09 01:10:23 20.8 26 22.1
003A7976 2019-03-09 00:39:19 20.8 26 22.1
003A7976 2019-03-09 00:08:15 20.8 26 22.3
003A7976 2019-03-08 23:37:11 20.9 26 22.5
003A7976 2019-03-08 23:06:08 20.9 26 22.5
003A7976 2019-03-08 22:35:05 20.9 26 22.5
003A7976 2019-03-08 22:04:02 20.9 27 22.5
003A7976 2019-03-08 21:32:58 21 27 22.4
003A7976 2019-03-08 21:01:55 21 26 22.4
003A7976 2019-03-08 20:30:17 21 26 22.6
003A7976 2019-03-08 19:59:14 21 27 22.7
003A7976 2019-03-08 19:28:10 21 27 22.7
003A7976 2019-03-08 18:57:05 21.1 27 22.6
003A7976 2019-03-08 18:26:00 21.1 26 22.6
003A7976 2019-03-08 17:54:57 21.1 26 22.6
003A7976 2019-03-08 17:23:55 21.1 26 22.6
003A7976 2019-03-08 16:52:50 21.1 27 22.5
003A7976 2019-03-08 16:21:48 21.1 27 22.5
003A7976 2019-03-08 15:50:45 21.1 27 22.6
003A7976 2019-03-08 15:19:40 21 26 21.7
003A7976 2019-03-08 14:48:37 21 26 21.7
003A7976 2019-03-08 14:17:34 21 26 21.8
003A7976 2019-03-08 13:46:33 20.9 26 21.9
003A7976 2019-03-08 13:15:26 20.9 26 21.8
003A7976 2019-03-08 12:44:21 20.9 26 21.9
003A7976 2019-03-08 12:13:17 20.9 25 21.9
003A7976 2019-03-08 11:42:12 20.8 25 21.9
003A7976 2019-03-08 11:11:07 20.8 25 21.8
003A7976 2019-03-08 10:40:03 20.8 24 21.8
003A7976 2019-03-08 10:08:58 20.8 24 21.8
003A7976 2019-03-08 09:37:55 20.7 24 21.8
003A7976 2019-03-08 09:06:50 20.7 24 21.9
003A7976 2019-03-08 08:35:47 20.7 24 21.9
003A7976 2019-03-08 08:04:44 20.7 23 21.8
003A7976 2019-03-08 07:33:42 20.7 23 21.7
003A7976 2019-03-08 07:02:38 20.7 23 21.7
003A7976 2019-03-08 06:31:36 20.7 23 21.7
003A7976 2019-03-08 06:00:34 20.7 23 21.6
003A7976 2019-03-08 05:29:31 20.7 23 21.5
003A7976 2019-03-08 04:58:28 20.8 23 21.6
003A7976 2019-03-08 04:27:24 20.7 23 21.6
003A7976 2019-03-08 03:56:20 20.7 22 21.7
003A7976 2019-03-08 03:25:17 20.7 22 21.7
003A7976 2019-03-08 02:54:12 20.8 22 21.6
003A7976 2019-03-08 02:23:06 20.7 22 21.6
003A7976 2019-03-08 01:52:03 20.7 22 21.5
003A7976 2019-03-08 01:20:59 20.8 22 21.4
003A7976 2019-03-08 00:49:56 20.8 22 21.4
003A7976 2019-03-08 00:18:53 20.8 22 21.4
003A7976 2019-03-07 23:47:49 20.8 22 21.3
003A7976 2019-03-07 23:16:45 20.8 22 21.1
003A7976 2019-03-07 22:45:40 20.9 22 20.9
003A7976 2019-03-07 22:14:35 20.9 22 20.7
003A7976 2019-03-07 21:43:30 20.9 22 20.4
003A7976 2019-03-07 21:12:26 20.9 22 20.1
003A7976 2019-03-07 20:41:21 20.9 21 20
003A7976 2019-03-07 20:10:16 21 21 19.7
003A7976 2019-03-07 19:39:12 21 21 19.4
003A7976 2019-03-07 19:08:08 21.1 21 20.9
003A7976 2019-03-07 18:36:31 21.1 21 20.5
003A7976 2019-03-07 18:05:29 21.1 21 20.3
003A7976 2019-03-07 17:34:25 21.2 21 20.3
003A7976 2019-03-07 17:03:21 21.2 21 20.2
003A7976 2019-03-07 16:32:17 21.2 21 20.1
003A7976 2019-03-07 16:01:14 21.2 21 20
003A7976 2019-03-07 15:30:10 21.2 20 19.8
003A7976 2019-03-07 14:59:07 21.1 20 19.6
003A7976 2019-03-07 14:28:05 21.1 20 19.6
003A7976 2019-03-07 13:57:02 21 19 19.3
003A7976 2019-03-07 13:25:57 21 19 19.1
003A7976 2019-03-07 12:54:54 20.9 19 19
003A7976 2019-03-07 12:23:50 20.9 18 18.8
003A7976 2019-03-07 11:52:46 20.9 18 18.5
003A7976 2019-03-07 11:21:42 20.9 18 18.3
003A7976 2019-03-07 10:50:40 20.8 17 18.4
003A7976 2019-03-07 10:19:37 20.7 17 18.4
003A7976 2019-03-07 09:48:35 20.7 16 18.4
003A7976 2019-03-07 09:17:32 20.7 16 18.6
003A7976 2019-03-07 08:46:28 20.7 16 18.6
003A7976 2019-03-07 08:15:24 20.7 15 18.5
003A7976 2019-03-07 07:13:19 20.7 15 18.5
003A7976 2019-03-07 06:42:17 20.7 14 18.7
003A7976 2019-03-07 06:11:11 20.7 14 15.5
003A7976 2019-03-07 05:40:09 20.7 14 15.5
003A7976 2019-03-07 05:09:04 20.7 14 15.6
003A7976 2019-03-07 04:38:01 20.7 14 15.3
003A7976 2019-03-07 04:06:59 20.7 14 15.3
003A7976 2019-03-07 03:35:54 20.7 13 15.2
003A7976 2019-03-07 03:04:52 20.7 13 14.9
003A7976 2019-03-07 02:33:47 20.7 13 15.2
003A7976 2019-03-07 02:02:41 20.7 13 15.2
003A7976 2019-03-07 01:31:37 20.7 13 15.4
003A7976 2019-03-07 01:00:33 20.7 13 15.5
003A7976 2019-03-07 00:29:29 20.7 13 15.4
003A7976 2019-03-06 23:58:26 20.7 13 15.5
003A7976 2019-03-06 23:27:21 20.7 12 15.6
003A7976 2019-03-06 22:56:18 20.7 12 15.6
003A7976 2019-03-06 22:25:15 20.8 12 15.7
003A7976 2019-03-06 21:54:12 20.8 12 16.2
003A7976 2019-03-06 21:23:12 20.8 12 16.2
003A7976 2019-03-06 20:52:05 20.8 12 16.3
003A7976 2019-03-06 20:21:00 20.8 12 16.5
003A7976 2019-03-06 19:49:55 20.8 12 16.2
003A7976 2019-03-06 19:18:49 20.9 12 16.3
003A7976 2019-03-06 18:47:45 20.9 12 16.4
003A7976 2019-03-06 18:16:40 20.9 12 16.2
003A7976 2019-03-06 17:45:35 20.9 12 15.9
003A7976 2019-03-06 17:14:30 20.9 12 15.9
003A7976 2019-03-06 16:42:51 20.9 12 16.1
003A7976 2019-03-06 16:11:47 20.9 12 16.2
003A7976 2019-03-06 15:40:42 20.9 12 16.5
003A7976 2019-03-06 15:09:41 20.9 12 16.7
003A7976 2019-03-06 14:38:33 20.8 12 16.8
003A7976 2019-03-06 14:07:29 20.7 12 16.8
003A7976 2019-03-06 13:36:24 20.7 11 16.9
003A7976 2019-03-06 13:05:19 20.7 12 16.9
003A7976 2019-03-06 12:34:15 20.7 12 16.8
003A7976 2019-03-06 12:03:10 20.6 12 19.4
003A7976 2019-03-06 11:32:06 20.6 12 19.4
003A7976 2019-03-06 11:01:02 20.6 12 19.3
003A7976 2019-03-06 10:29:58 20.5 12 19.3
003A7976 2019-03-06 09:58:56 20.5 12 19.2
003A7976 2019-03-06 09:27:51 20.4 12 19.3
003A7976 2019-03-06 08:56:48 20.4 12 19.4
003A7976 2019-03-06 08:25:44 20.5 12 19.5
003A7976 2019-03-06 07:54:41 20.5 12 19.5
003A7976 2019-03-06 07:23:39 20.5 13 19.5
003A7976 2019-03-06 06:52:37 20.5 13 19.4
003A7976 2019-03-06 06:21:35 20.5 13 19.4
003A7976 2019-03-06 05:50:34 20.5 13 19.5
003A7976 2019-03-06 05:19:32 20.5 13 19.5
003A7976 2019-03-06 04:48:31 20.6 13 19.4
003A7976 2019-03-06 04:17:29 20.6 13 19.5
003A7976 2019-03-06 03:46:32 20.6 13 19.5
003A7976 2019-03-06 03:15:27 20.6 13 19.5
003A7976 2019-03-06 02:44:25 20.6 13 19.3
003A7976 2019-03-06 02:13:25 20.6 13 19.3
003A7976 2019-03-06 01:42:23 20.7 13 19.2
003A7976 2019-03-06 01:11:20 20.7 13 19.1
003A7976 2019-03-06 00:40:21 20.7 14 19.1
003A7976 2019-03-06 00:09:17 20.7 14 19
003A7976 2019-03-05 23:38:15 20.7 14 19
003A7976 2019-03-05 23:07:13 20.8 14 16.2
003A7976 2019-03-05 22:36:10 20.8 14 16.1
003A7976 2019-03-05 22:05:07 20.8 14 16.1
003A7976 2019-03-05 21:34:04 20.9 14 16.3
003A7976 2019-03-05 21:03:02 20.9 14 16.3
003A7976 2019-03-05 20:32:00 20.9 14 15.7
003A7976 2019-03-05 20:00:56 20.9 14 15.3
003A7976 2019-03-05 19:29:53 20.9 14 14.9
003A7976 2019-03-05 18:58:50 20.9 14 14.9
003A7976 2019-03-05 18:27:48 21 14 14.6
003A7976 2019-03-05 17:56:45 21 15 14.6
003A7976 2019-03-05 17:25:43 21 15 14.6
003A7976 2019-03-05 16:54:42 21 15 14.1
003A7976 2019-03-05 16:23:39 21 16 14.1
003A7976 2019-03-05 15:52:36 20.9 16 14.2
003A7976 2019-03-05 15:21:32 20.8 16 13.5
003A7976 2019-03-05 14:49:56 20.7 17 13.5
003A7976 2019-03-05 14:18:54 20.6 17 13.6
003A7976 2019-03-05 13:47:50 20.6 17 13.3
003A7976 2019-03-05 13:16:47 20.6 17 13.2
003A7976 2019-03-05 12:45:44 20.6 17 13.3
003A7976 2019-03-05 12:14:43 20.6 17 13.3
003A7976 2019-03-05 11:43:42 20.6 18 13.2
003A7976 2019-03-05 11:12:34 20.6 18 13.1
003A7976 2019-03-05 10:41:32 20.5 18 12.8
003A7976 2019-03-05 10:10:30 20.5 18 12.8
003A7976 2019-03-05 09:39:25 20.5 18 12.9
003A7976 2019-03-05 09:08:21 20.5 18 12.6
003A7976 2019-03-05 08:37:18 20.5 18 12.6
003A7976 2019-03-05 08:06:14 20.5 19 12.7
003A7976 2019-03-05 07:35:12 20.5 19 17.6
003A7976 2019-03-05 07:04:08 20.5 19 17.5
003A7976 2019-03-05 06:33:02 20.5 19 17.6
003A7976 2019-03-05 06:01:59 20.5 19 17.6
003A7976 2019-03-05 05:30:58 20.5 19 17.7
003A7976 2019-03-05 04:59:53 20.5 19 17.7
003A7976 2019-03-05 04:28:49 20.6 19 17.7
003A7976 2019-03-05 03:57:43 20.6 19 17.7
003A7976 2019-03-05 03:26:40 20.6 19 17.6
003A7976 2019-03-05 02:55:35 20.5 19 17.6
003A7976 2019-03-05 02:24:32 20.5 19 17.6
003A7976 2019-03-05 01:53:28 20.5 18 17.6
003A7976 2019-03-05 01:22:25 20.5 18 17.7
003A7976 2019-03-05 00:51:21 20.6 18 17.7
003A7976 2019-03-05 00:20:19 20.6 18 17.7
003A7976 2019-03-04 23:49:13 20.6 18 17.6
003A7976 2019-03-04 23:18:09 20.5 18 17.6
003A7976 2019-03-04 22:47:06 20.6 18 17.6
003A7976 2019-03-04 22:16:05 20.6 18 17.7
003A7976 2019-03-04 21:45:00 20.5 18 17.8
003A7976 2019-03-04 21:13:58 20.6 18 17.8
003A7976 2019-03-04 20:42:56 20.6 18 19.9
003A7976 2019-03-04 20:11:51 20.6 18 20.1
003A7976 2019-03-04 19:40:51 20.5 18 20.1
003A7976 2019-03-04 19:09:50 20.6 18 20.2
003A7976 2019-03-04 18:38:44 20.6 18 18.3
003A7976 2019-03-04 18:07:41 20.6 18 18.5
003A7976 2019-03-04 17:36:38 20.6 18 18.5
003A7976 2019-03-04 17:05:34 20.6 18 18.6
003A7976 2019-03-04 16:34:28 20.5 18 18.6
003A7976 2019-03-04 16:03:26 20.5 18 20.5
003A7976 2019-03-04 15:32:24 20.5 17 20.6
003A7976 2019-03-04 15:01:21 20.5 17 20.6
003A7976 2019-03-04 13:59:12 20.4 17 20.7
003A7976 2019-03-04 13:28:10 20.4 17 20.8
003A7976 2019-03-04 12:56:35 20.3 17 20.9
003A7976 2019-03-04 12:25:34 20.3 17 20.9
003A7976 2019-03-04 11:54:31 20.3 17 21
003A7976 2019-03-04 11:23:29 20.3 17 21.2
003A7976 2019-03-04 10:52:26 20.2 17 21.3
003A7976 2019-03-04 10:21:23 20.2 17 21.3
003A7976 2019-03-04 09:50:21 20.1 17 21.3
003A7976 2019-03-04 09:19:21 20.1 17 21.3
003A7976 2019-03-04 08:48:17 20.1 17 21.2
003A7976 2019-03-04 08:17:15 20.1 18 22.4
003A7976 2019-03-04 07:46:13 20.1 18 21.3
003A7976 2019-03-04 07:15:11 20.1 18 21.2
003A7976 2019-03-04 06:44:08 20.1 18 22.3
003A7976 2019-03-04 06:13:05 20.1 18 22.3
003A7976 2019-03-04 05:42:02 20.1 18 22.4
003A7976 2019-03-04 05:10:59 20.1 18 22.3
003A7976 2019-03-04 04:39:59 20.1 18 22.3
003A7976 2019-03-04 04:08:55 20.1 18 22.2
003A7976 2019-03-04 03:37:52 20.1 18 22.4
003A7976 2019-03-04 03:06:48 20.1 18 21.4
003A7976 2019-03-04 02:35:44 20.1 18 21.4
003A7976 2019-03-04 02:04:42 20.1 18 21.4
003A7976 2019-03-04 01:33:39 20.1 18 21.4
003A7976 2019-03-04 01:02:37 20.1 17 21.3
003A7976 2019-03-04 00:31:35 20.1 18 21.3
003A7976 2019-03-04 00:00:32 20.2 17 21.3
003A7976 2019-03-03 23:29:30 20.1 18 21.3
003A7976 2019-03-03 22:58:28 20.1 18 21.3
003A7976 2019-03-03 22:27:27 20.2 18 21.1
003A7976 2019-03-03 21:56:23 20.2 18 21
003A7976 2019-03-03 21:25:21 20.1 18 21.1
003A7976 2019-03-03 20:54:18 20.2 18 21.1
003A7976 2019-03-03 20:23:16 20.2 18 21.1
003A7976 2019-03-03 19:52:16 20.2 18 21.2
003A7976 2019-03-03 19:21:11 20.2 18 19.7
003A7976 2019-03-03 18:50:09 20.2 18 19.7
003A7976 2019-03-03 18:19:07 20.3 18 19.7
003A7976 2019-03-03 17:48:04 20.3 18 17.4
003A7976 2019-03-03 17:17:02 20.2 18 17.7
003A7976 2019-03-03 16:46:00 20.3 18 17.7
003A7976 2019-03-03 16:14:57 20.3 18 18
003A7976 2019-03-03 15:43:54 20.3 18 18
003A7976 2019-03-03 15:12:54 20.3 18 18.1
003A7976 2019-03-03 14:41:50 20.3 18 17.8
003A7976 2019-03-03 14:10:50 20.2 18 17.7
003A7976 2019-03-03 13:39:43 20.3 18 17.9
003A7976 2019-03-03 13:08:39 20.2 18 17.8
003A7976 2019-03-03 12:37:34 20.2 18 17.9
003A7976 2019-03-03 12:06:30 20.2 18 17.8
003A7976 2019-03-03 11:35:28 20.2 18 17.7
003A7976 2019-03-03 11:03:52 20.2 18 18.8
003A7976 2019-03-03 10:32:48 20.3 18 19.1
003A7976 2019-03-03 10:01:47 20.3 18 19.3
003A7976 2019-03-03 09:30:38 20.3 18 19.2
003A7976 2019-03-03 08:59:34 20.3 18 19.2
003A7976 2019-03-03 08:28:29 20.3 18 19.1
003A7976 2019-03-03 07:57:24 20.3 18 19.1
003A7976 2019-03-03 07:26:20 20.3 18 19.1
003A7976 2019-03-03 06:55:16 20.3 18 19
003A7976 2019-03-03 06:24:12 20.3 18 18.8
003A7976 2019-03-03 05:53:08 20.3 18 18.5
003A7976 2019-03-03 05:22:03 20.3 18 18.5
003A7976 2019-03-03 04:50:58 20.3 18 18.5
003A7976 2019-03-03 04:19:54 20.3 18 18.5
003A7976 2019-03-03 03:48:52 20.3 18 18.4
003A7976 2019-03-03 03:17:50 20.4 18 18.1
003A7976 2019-03-03 02:46:47 20.4 18 18.1
003A7976 2019-03-03 02:15:45 20.4 18 18.3
003A7976 2019-03-03 01:44:42 20.4 18 18.3
003A7976 2019-03-03 01:13:39 20.4 18 18.4
003A7976 2019-03-03 00:42:36 20.4 18 18.1
003A7976 2019-03-03 00:11:33 20.4 18 17.9
003A7976 2019-03-02 23:40:31 20.4 18 17.9
003A7976 2019-03-02 23:09:26 20.4 18 17.5
003A7976 2019-03-02 22:38:21 20.4 17 17
003A7976 2019-03-02 22:07:16 20.5 17 16.5
003A7976 2019-03-02 21:36:12 20.4 17 16.4
003A7976 2019-03-02 21:05:09 20.5 17 16.7
003A7976 2019-03-02 20:34:05 20.5 17 16.5
003A7976 2019-03-02 20:03:03 20.5 17 16.5
003A7976 2019-03-02 19:32:00 20.5 17 17
003A7976 2019-03-02 19:00:57 20.5 17 17.4
003A7976 2019-03-02 18:29:54 20.6 17 17.5
003A7976 2019-03-02 17:58:52 20.6 17 17.5
003A7976 2019-03-02 17:27:49 20.6 17 17.7
003A7976 2019-03-02 16:56:47 20.6 17 17.8
003A7976 2019-03-02 16:25:45 20.6 17 18.1
003A7976 2019-03-02 15:54:42 20.6 17 18.3
003A7976 2019-03-02 15:23:40 20.5 17 18.6
003A7976 2019-03-02 14:52:38 20.4 16 18.6
003A7976 2019-03-02 14:21:36 20.4 16 18.7
003A7976 2019-03-02 13:50:31 20.4 16 18.8
003A7976 2019-03-02 13:19:31 20.4 16 18.6
003A7976 2019-03-02 12:48:26 20.4 16 18.6
003A7976 2019-03-02 12:17:24 20.4 16 18.4
003A7976 2019-03-02 11:46:22 20.4 16 18.4
003A7976 2019-03-02 11:15:20 20.4 16 18.5
003A7976 2019-03-02 10:44:16 20.4 16 18.3
003A7976 2019-03-02 10:13:13 20.4 16 18.6
003A7976 2019-03-02 09:42:10 20.4 15 18.6
003A7976 2019-03-02 09:10:43 20.4 15 18.7
003A7976 2019-03-02 08:39:40 20.5 15 18.5
003A7976 2019-03-02 08:08:38 20.4 15 18.4
003A7976 2019-03-02 07:37:35 20.5 15 18.3
003A7976 2019-03-02 07:06:33 20.5 15 18
003A7976 2019-03-02 06:35:30 20.5 15 17.7
003A7976 2019-03-02 06:04:28 20.5 15 17.6
003A7976 2019-03-02 05:33:26 20.5 15 17.5
003A7976 2019-03-02 05:02:21 20.5 15 17.6
003A7976 2019-03-02 04:31:20 20.5 15 17.8
003A7976 2019-03-02 04:00:17 20.6 15 17.4
003A7976 2019-03-02 03:29:15 20.6 15 16.9
003A7976 2019-03-02 02:58:14 20.6 15 16.3
003A7976 2019-03-02 02:27:09 20.6 14 19.1
003A7976 2019-03-02 01:56:06 20.7 14 18.9
003A7976 2019-03-02 01:25:04 20.7 14 18.9
003A7976 2019-03-02 00:54:02 20.8 14 18.7
003A7976 2019-03-02 00:23:00 20.8 14 19
003A7976 2019-03-01 23:51:57 20.8 14 19.2
003A7976 2019-03-01 23:20:53 20.9 14 19.3
003A7976 2019-03-01 22:49:48 20.9 14 19.2
003A7976 2019-03-01 22:18:46 21 14 19.4
003A7976 2019-03-01 21:47:42 21 14 19.2
003A7976 2019-03-01 21:16:40 21 14 19.5
003A7976 2019-03-01 20:45:37 21 14 19.6
003A7976 2019-03-01 20:14:34 21 14 19.6
003A7976 2019-03-01 19:43:30 21 14 19.7
003A7976 2019-03-01 19:12:27 21.1 14 19.7
003A7976 2019-03-01 18:41:24 21.1 14 19.7
003A7976 2019-03-01 18:10:20 21.2 14 19.8
003A7976 2019-03-01 17:39:15 21.2 14 19.8
003A7976 2019-03-01 17:08:11 21.2 15 19.8
003A7976 2019-03-01 16:37:08 21.2 15 20
003A7976 2019-03-01 16:06:04 21.2 15 19.9
003A7976 2019-03-01 15:35:01 21.1 15 19.7
003A7976 2019-03-01 15:03:57 21 16 19.8
003A7976 2019-03-01 14:32:56 20.9 16 20
003A7976 2019-03-01 14:01:51 20.9 16 20
003A7976 2019-03-01 13:30:47 20.9 16 18.3
003A7976 2019-03-01 12:59:44 20.9 16 18.2
003A7976 2019-03-01 12:28:40 20.9 17 18.4
003A7976 2019-03-01 11:57:36 20.9 17 18.5
003A7976 2019-03-01 11:26:34 20.8 17 18.3
003A7976 2019-03-01 10:55:30 20.8 18 18.1
003A7976 2019-03-01 10:24:24 20.7 18 18.1
003A7976 2019-03-01 09:53:20 20.6 18 18.1
003A7976 2019-03-01 09:22:16 20.6 18 18.1
003A7976 2019-03-01 08:51:12 20.6 18 17.9
003A7976 2019-03-01 08:20:09 20.6 19 18
003A7976 2019-03-01 07:49:06 20.6 19 18.1
003A7976 2019-03-01 07:17:32 20.6 19 18.4
003A7976 2019-03-01 06:46:26 20.6 19 18.5
003A7976 2019-03-01 06:15:22 20.6 20 18.5
003A7976 2019-03-01 05:44:19 20.6 20 18.5
003A7976 2019-03-01 05:13:14 20.6 20 18.6
003A7976 2019-03-01 04:42:10 20.7 20 18.6
003A7976 2019-03-01 04:11:07 20.6 20 18.4
003A7976 2019-03-01 03:40:07 20.7 21 18
003A7976 2019-03-01 03:09:01 20.7 21 17.9
003A7976 2019-03-01 02:37:58 20.7 21 18
003A7976 2019-03-01 02:06:55 20.7 21 18
003A7976 2019-03-01 01:35:51 20.8 22 17.7
003A7976 2019-03-01 01:04:48 20.8 22 19.8
003A7976 2019-03-01 00:33:46 20.8 22 19.6
003A7976 2019-03-01 00:02:39 20.8 22 19.6
003A7976 2019-02-28 23:31:35 20.9 23 19.5
003A7976 2019-02-28 23:00:31 20.8 23 19.4
003A7976 2019-02-28 22:29:27 20.9 23 19.3
003A7976 2019-02-28 21:58:23 20.9 23 19.2
003A7976 2019-02-28 21:27:19 21 23 19.3
003A7976 2019-02-28 20:56:16 21 24 19.2
003A7976 2019-02-28 20:25:09 21 24 19.1
003A7976 2019-02-28 19:54:08 21 24 20.8
003A7976 2019-02-28 19:22:57 21.1 24 20.6
003A7976 2019-02-28 18:51:51 21.2 24 20.4
003A7976 2019-02-28 18:20:46 21.3 24 20.3
003A7976 2019-02-28 17:49:41 21.3 25 20.1
003A7976 2019-02-28 17:18:35 21.4 25 20.1
003A7976 2019-02-28 16:47:29 21.4 26 20.1
003A7976 2019-02-28 15:45:19 21.3 25 20
003A7976 2019-02-28 15:14:13 21.2 25 19.9
003A7976 2019-02-28 14:43:07 21.3 25 20
003A7976 2019-02-28 14:12:03 21.2 25 20
003A7976 2019-02-28 13:40:56 21.2 25 20
003A7976 2019-02-28 13:09:52 21.2 24 20
003A7976 2019-02-28 12:38:47 21.2 24 20
003A7976 2019-02-28 12:07:42 21.1 24 19.9
003A7976 2019-02-28 11:36:37 21 24 17.7
003A7976 2019-02-28 11:05:34 21 24 19.9
003A7976 2019-02-28 10:34:28 20.9 23 19.9
003A7976 2019-02-28 10:03:24 20.8 23 19.9
003A7976 2019-02-28 09:32:16 20.8 23 19.9
003A7976 2019-02-28 09:01:10 20.8 23 19.9
003A7976 2019-02-28 08:30:03 20.8 22 19.8
003A7976 2019-02-28 07:58:59 20.8 22 19.8
003A7976 2019-02-28 07:27:51 20.8 22 19.8
003A7976 2019-02-28 06:56:46 20.8 22 19.7
003A7976 2019-02-28 06:25:41 20.8 22 17.4
003A7976 2019-02-28 05:54:36 20.8 22 17.5
003A7976 2019-02-28 05:22:51 20.8 22 17.5
003A7976 2019-02-28 04:51:43 20.8 22 17.9
003A7976 2019-02-28 04:20:40 20.8 22 18.2
003A7976 2019-02-28 03:49:35 20.8 22 18.5
003A7976 2019-02-28 03:18:31 20.8 22 18.5
003A7976 2019-02-28 02:47:26 20.9 22 18.5
003A7976 2019-02-28 02:16:23 20.9 22 18.6
003A7976 2019-02-28 01:45:17 20.9 22 18.8
003A7976 2019-02-28 01:14:15 20.9 22 18.8
003A7976 2019-02-28 00:43:11 20.9 23 19.1
003A7976 2019-02-28 00:12:09 21 23 20.8
003A7976 2019-02-27 23:41:04 21 23 20.8
003A7976 2019-02-27 23:09:56 21 23 20.9
003A7976 2019-02-27 22:38:51 21.1 23 20.9
003A7976 2019-02-27 22:07:48 21.1 23 19.3
003A7976 2019-02-27 21:36:43 21.2 23 19.3
003A7976 2019-02-27 21:05:35 21.2 23 19.4
003A7976 2019-02-27 20:34:30 21.2 24 19.5
003A7976 2019-02-27 20:03:26 21.3 24 19.5
003A7976 2019-02-27 19:32:22 21.3 24 19.6
003A7976 2019-02-27 19:01:16 21.4 24 19.5
003A7976 2019-02-27 18:30:10 21.5 24 19.5
003A7976 2019-02-27 17:59:04 21.6 24 19.6
003A7976 2019-02-27 17:28:02 21.6 25 19.6
003A7976 2019-02-27 16:56:58 21.6 26 19.6
003A7976 2019-02-27 16:25:54 21.6 26 19.5
003A7976 2019-02-27 15:54:48 21.6 26 19.3
003A7976 2019-02-27 15:23:44 21.5 26 19.1
003A7976 2019-02-27 14:52:40 21.4 26 18.9
003A7976 2019-02-27 14:21:35 21.3 25 18.9
003A7976 2019-02-27 13:50:30 21.3 25 18.9
003A7976 2019-02-27 13:19:24 21.2 25 18.9
003A7976 2019-02-27 12:48:20 21.2 25 18.6
003A7976 2019-02-27 12:17:15 21.2 25 18.6
003A7976 2019-02-27 11:46:09 21.2 25 18.2
003A7976 2019-02-27 11:15:05 21.1 25 14.7
003A7976 2019-02-27 10:44:02 21 25 14.7
003A7976 2019-02-27 10:13:00 21 25 14.4
003A7976 2019-02-27 09:41:57 20.9 24 14.3
003A7976 2019-02-27 09:10:54 20.9 24 14.2
003A7976 2019-02-27 08:39:49 20.9 24 14.3
003A7976 2019-02-27 08:08:48 20.9 23 14.1
003A7976 2019-02-27 07:37:44 20.9 23 13.9
003A7976 2019-02-27 07:06:41 20.9 23 14
003A7976 2019-02-27 06:35:38 20.9 23 14.5
003A7976 2019-02-27 06:04:35 20.9 23 15.3
003A7976 2019-02-27 05:33:32 21 23 15.4
003A7976 2019-02-27 05:02:28 21 23 15.6
003A7976 2019-02-27 04:31:29 21 23 15.5
003A7976 2019-02-27 04:00:21 21 23 15.6
003A7976 2019-02-27 03:28:47 21 23 15.7
003A7976 2019-02-27 02:57:43 21.1 23 15.6
003A7976 2019-02-27 02:26:38 21.1 23 15.8
003A7976 2019-02-27 01:55:33 21.1 24 15.7
003A7976 2019-02-27 01:24:31 21.1 23 16.3
003A7976 2019-02-27 00:53:25 21.2 24 16.9
003A7976 2019-02-27 00:22:23 21.2 24 16.7
003A7976 2019-02-26 23:51:17 21.3 24 16.7
003A7976 2019-02-26 23:20:17 21.3 24 17.3
003A7976 2019-02-26 22:49:08 21.4 24 19.7
003A7976 2019-02-26 22:18:04 21.4 24 21.1
003A7976 2019-02-26 21:47:02 21.5 24 22.3
003A7976 2019-02-26 21:15:57 21.5 24 23.2
003A7976 2019-02-26 20:44:52 21.6 24 24
003A7976 2019-02-26 20:13:49 21.6 24 24.6
003A7976 2019-02-26 19:42:43 21.6 24 25.1
003A7976 2019-02-26 19:11:39 21.7 24 25.6
003A7976 2019-02-26 18:40:36 21.8 24 26.1
003A7976 2019-02-26 18:09:32 21.8 24 26.5
003A7976 2019-02-26 17:38:27 21.9 24 26.8
003A7976 2019-02-26 17:07:23 21.9 24 26.8
003A7976 2019-02-26 16:36:21 21.8 25 27.1
003A7976 2019-02-26 16:05:16 21.7 25 27.4
003A7976 2019-02-26 15:34:14 21.7 25 27.7
003A7976 2019-02-26 15:03:08 21.6 25 28
003A7976 2019-02-26 14:32:04 21.5 24 28.2
003A7976 2019-02-26 13:29:54 21.5 25 28.5
003A7976 2019-02-26 12:58:50 21.4 24 28.7
003A7976 2019-02-26 12:27:46 21.4 25 28.9
003A7976 2019-02-26 11:56:42 21.3 24 28.9
003A7976 2019-02-26 11:25:37 21.2 24 29.1
003A7976 2019-02-26 10:54:33 21.2 24 29.3
003A7976 2019-02-26 10:23:29 21.1 24 29.5
003A7976 2019-02-26 09:52:26 21 23 29.7
003A7976 2019-02-26 09:21:20 21 23 29.7
003A7976 2019-02-26 08:50:16 20.9 23 29.7
003A7976 2019-02-26 08:19:10 20.9 23 29.7
003A7976 2019-02-26 07:48:04 20.9 23 29.7
003A7976 2019-02-26 07:16:58 20.9 23 29.7
003A7976 2019-02-26 06:45:53 20.9 22 29.7
003A7976 2019-02-26 06:14:48 20.9 22 29.7
003A7976 2019-02-26 05:43:43 20.9 22 29.7
003A7976 2019-02-26 05:12:37 21 22 29.7
003A7976 2019-02-26 04:41:31 21 22 29.7
003A7976 2019-02-26 04:10:25 21 22 29.5
003A7976 2019-02-26 03:39:19 21 22 29.5
003A7976 2019-02-26 03:08:13 21 22 29.3
003A7976 2019-02-26 02:37:07 21 22 29.3
003A7976 2019-02-26 02:06:01 21.1 22 29.1
003A7976 2019-02-26 01:34:16 21.1 22 28.7
003A7976 2019-02-26 01:03:10 21.1 21 28.5
003A7976 2019-02-26 00:32:05 21.1 21 28.2
003A7976 2019-02-26 00:00:59 21.2 21 28
003A7976 2019-02-25 23:29:55 21.2 21 28
003A7976 2019-02-25 22:58:49 21.2 21 27.7
003A7976 2019-02-25 22:27:44 21.3 21 27.4
003A7976 2019-02-25 21:56:40 21.3 21 27.1
003A7976 2019-02-25 21:25:36 21.4 21 26.8
003A7976 2019-02-25 20:54:33 21.4 21 26.4
003A7976 2019-02-25 20:23:28 21.5 21 26.1
003A7976 2019-02-25 19:52:24 21.5 21 25.7
003A7976 2019-02-25 19:21:21 21.6 21 25.3
003A7976 2019-02-25 18:50:16 21.6 21 24.7
003A7976 2019-02-25 18:19:12 21.6 22 24.1
003A7976 2019-02-25 17:48:09 21.6 22 23.5
003A7976 2019-02-25 17:17:04 21.6 22 22.8
003A7976 2019-02-25 16:46:01 21.7 22 21.9
003A7976 2019-02-25 16:14:58 21.6 22 20.7
003A7976 2019-02-25 15:43:56 21.6 22 20.7
003A7976 2019-02-25 15:12:52 21.5 23 20.7
003A7976 2019-02-25 14:41:47 21.4 23 20.7
003A7976 2019-02-25 14:10:43 21.4 23 19.3
003A7976 2019-02-25 13:39:39 21.3 22 19.3
003A7976 2019-02-25 13:08:36 21.2 22 19.3
003A7976 2019-02-25 12:37:32 21.1 22 19.4
003A7976 2019-02-25 12:06:31 21 22 19.4
003A7976 2019-02-25 11:35:29 21 23 19.4
003A7976 2019-02-25 11:04:21 20.9 23 19.2
003A7976 2019-02-25 10:33:19 20.8 23 19.3
003A7976 2019-02-25 10:02:16 20.7 22 19.4
003A7976 2019-02-25 09:31:11 20.7 22 19.8
003A7976 2019-02-25 09:00:08 20.7 22 19.8
003A7976 2019-02-25 08:29:05 20.6 22 19.8
003A7976 2019-02-25 07:58:02 20.6 22 19.7
003A7976 2019-02-25 07:26:57 20.6 22 19.8
003A7976 2019-02-25 06:55:54 20.6 22 19.7
003A7976 2019-02-25 06:24:47 20.7 22 19.7
003A7976 2019-02-25 05:53:42 20.7 22 19.7
003A7976 2019-02-25 05:22:36 20.7 22 19.7
003A7976 2019-02-25 04:51:32 20.7 22 19.4
003A7976 2019-02-25 04:20:31 20.7 22 19.4
003A7976 2019-02-25 03:49:25 20.7 22 19.4
003A7976 2019-02-25 03:18:23 20.7 22 19.4
003A7976 2019-02-25 02:47:20 20.7 22 19.3
003A7976 2019-02-25 02:16:16 20.7 22 19.2
003A7976 2019-02-25 01:45:11 20.7 22 19
003A7976 2019-02-25 01:14:07 20.7 22 18.9
003A7976 2019-02-25 00:43:01 20.7 23 18.9
003A7976 2019-02-25 00:11:56 20.7 23 19.1
003A7976 2019-02-24 23:40:13 20.8 23 19.4
003A7976 2019-02-24 23:09:08 20.8 23 19.4
003A7976 2019-02-24 22:38:07 20.8 23 19.7
003A7976 2019-02-24 22:07:00 20.8 23 19.7
003A7976 2019-02-24 21:35:57 20.8 23 19.4
003A7976 2019-02-24 21:04:52 20.8 23 19.2
003A7976 2019-02-24 20:33:48 20.8 23 19.4
003A7976 2019-02-24 20:02:45 20.8 23 19.3
003A7976 2019-02-24 19:31:43 20.9 23 19.5
003A7976 2019-02-24 19:00:39 20.8 22 19.6
003A7976 2019-02-24 18:29:34 20.8 22 19.6
003A7976 2019-02-24 17:58:31 20.8 22 19.6
003A7976 2019-02-24 17:27:27 20.9 22 19.6
003A7976 2019-02-24 16:56:24 20.8 22 19.5
003A7976 2019-02-24 16:25:21 20.8 22 19.7
003A7976 2019-02-24 15:54:19 20.8 22 19.8
003A7976 2019-02-24 15:23:17 20.8 22 19.6
003A7976 2019-02-24 14:52:13 20.8 22 19.5
003A7976 2019-02-24 14:21:10 20.8 22 19.6
003A7976 2019-02-24 13:50:07 20.8 21 19.5
003A7976 2019-02-24 13:19:08 20.8 21 19.5
003A7976 2019-02-24 12:48:01 20.8 21 19.3
003A7976 2019-02-24 12:16:57 20.8 21 19.4
003A7976 2019-02-24 11:45:53 20.8 21 19.1
003A7976 2019-02-24 11:14:49 20.8 21 19.1
003A7976 2019-02-24 10:43:47 20.8 21 19.3
003A7976 2019-02-24 10:12:46 20.8 21 19.4
003A7976 2019-02-24 09:41:42 20.8 21 19.2
003A7976 2019-02-24 09:10:40 20.8 21 19.1
003A7976 2019-02-24 08:39:35 20.8 21 19.4
003A7976 2019-02-24 08:08:32 20.9 21 19.4
003A7976 2019-02-24 07:37:29 20.9 21 19.3
003A7976 2019-02-24 07:06:26 20.9 20 19.6
003A7976 2019-02-24 06:35:23 20.9 20 19.6
003A7976 2019-02-24 06:04:19 20.9 20 19.4
003A7976 2019-02-24 05:33:16 20.9 20 19.5
003A7976 2019-02-24 05:02:13 20.9 20 19.6
003A7976 2019-02-24 04:31:09 20.9 20 19.6
003A7976 2019-02-24 04:00:05 20.9 20 19.6
003A7976 2019-02-24 03:29:00 21 20 19.5
003A7976 2019-02-24 02:57:57 21 20 19.6
003A7976 2019-02-24 02:26:53 21 20 19.8
003A7976 2019-02-24 01:55:49 21 20 19.9
003A7976 2019-02-24 01:24:45 21 20 19.8
003A7976 2019-02-24 00:53:41 21 20 19.8
003A7976 2019-02-24 00:22:38 21 19 19.9
003A7976 2019-02-23 23:51:34 21.1 19 19.9
003A7976 2019-02-23 23:20:31 21.1 19 20
003A7976 2019-02-23 22:49:28 21.1 19 19.8
003A7976 2019-02-23 22:18:27 21.1 19 19.6
003A7976 2019-02-23 21:46:50 21.1 19 19.7
003A7976 2019-02-23 21:15:50 21.2 19 19.7
003A7976 2019-02-23 20:44:46 21.2 18 19.6
003A7976 2019-02-23 20:13:44 21.2 18 19.5
003A7976 2019-02-23 19:42:41 21.2 18 19.3
003A7976 2019-02-23 19:11:37 21.3 18 19.3
003A7976 2019-02-23 18:40:34 21.3 18 19.2
003A7976 2019-02-23 18:09:34 21.2 17 19
003A7976 2019-02-23 17:38:30 21.2 17 18.9
003A7976 2019-02-23 17:07:27 21.2 16 18.9
003A7976 2019-02-23 16:36:27 21.2 16 19
003A7976 2019-02-23 16:05:23 21.2 16 19
003A7976 2019-02-23 15:34:23 21.1 16 18.7
003A7976 2019-02-23 15:03:18 21 16 18.4
003A7976 2019-02-23 14:32:16 20.9 16 18.2
003A7976 2019-02-23 14:01:12 20.9 15 18
003A7976 2019-02-23 13:30:09 20.9 15 18
003A7976 2019-02-23 12:59:07 20.9 15 18.1
003A7976 2019-02-23 12:28:02 20.9 15 18
003A7976 2019-02-23 11:56:58 20.9 15 18.1
003A7976 2019-02-23 11:25:56 20.9 15 17.8
003A7976 2019-02-23 10:54:53 20.9 15 17.7
003A7976 2019-02-23 10:23:51 20.9 15 17.5
003A7976 2019-02-23 09:52:49 20.9 14 17.5
003A7976 2019-02-23 09:21:47 20.9 14 17.4
003A7976 2019-02-23 08:50:46 20.9 14 17
003A7976 2019-02-23 08:19:45 20.9 14 17
003A7976 2019-02-23 07:48:43 20.9 14 16.8
003A7976 2019-02-23 07:17:40 20.9 14 16.5
003A7976 2019-02-23 06:46:41 20.9 14 16.7
003A7976 2019-02-23 06:15:34 20.9 13 16.3
003A7976 2019-02-23 05:44:32 20.9 13 16.1
003A7976 2019-02-23 05:13:29 20.9 13 16.1
003A7976 2019-02-23 04:42:26 20.9 13 16
003A7976 2019-02-23 04:11:24 20.9 13 15.8
003A7976 2019-02-23 03:40:20 20.9 13 15.6
003A7976 2019-02-23 03:09:18 20.9 13 15.9
003A7976 2019-02-23 02:38:15 20.9 12 16.6
003A7976 2019-02-23 02:07:12 20.9 12 16.9
003A7976 2019-02-23 01:36:09 20.9 12 17.2
003A7976 2019-02-23 01:05:05 20.9 12 17.2
003A7976 2019-02-23 00:34:01 21 12 17.3
003A7976 2019-02-23 00:02:58 21 12 17.6
003A7976 2019-02-22 23:31:56 21 12 17.8
003A7976 2019-02-22 23:00:55 21 12 18
003A7976 2019-02-22 22:29:50 21.1 12 18.2
003A7976 2019-02-22 21:58:48 21.1 12 18.2
003A7976 2019-02-22 21:27:45 21.1 12 18.2
003A7976 2019-02-22 20:56:42 21.1 12 18.4
003A7976 2019-02-22 20:25:39 21.2 12 18.4
003A7976 2019-02-22 19:54:03 21.2 12 18.6
003A7976 2019-02-22 19:43:35 21.2 12 18.6
003A7976 2019-02-22 19:33:09 21.2 12 18.6
003A7976 2019-02-22 19:22:42 21.2 12 18.8
003A7976 2019-02-22 19:12:15 21.2 12 18.9
003A7976 2019-02-22 19:01:47 21.2 12 18.9
003A7976 2019-02-22 18:51:21 21.2 12 18.6
003A7976 2019-02-22 18:40:54 21.2 12 18.7
003A7976 2019-02-22 18:30:28 21.2 12 18.6
003A7976 2019-02-22 18:19:59 21.2 12 18.4
003A7976 2019-02-22 18:09:32 21.2 12 18.6
003A7976 2019-02-22 17:59:06 21.3 12 18.7
003A7976 2019-02-22 17:48:39 21.2 12 18.6
003A7976 2019-02-22 17:38:12 21.3 12 18.6
003A7976 2019-02-22 17:27:45 21.3 12 18.7
003A7976 2019-02-22 17:17:18 21.3 12 18.6
003A7976 2019-02-22 17:06:50 21.2 13 20.3
003A7976 2019-02-22 16:56:26 21.2 12 20.2
003A7976 2019-02-22 16:45:58 21.2 13 20
003A7976 2019-02-22 16:35:31 21.2 13 20
003A7976 2019-02-22 16:25:06 21.2 13 20
003A7976 2019-02-22 16:14:37 21.2 13 20.1
003A7976 2019-02-22 16:04:10 21.2 13 20
003A7976 2019-02-22 15:53:43 21.1 13 20
003A7976 2019-02-22 15:43:17 21.1 13 19.9
003A7976 2019-02-22 15:32:49 21.1 13 20.1
003A7976 2019-02-22 15:22:22 21 13 20
003A7976 2019-02-22 15:11:55 21 13 19.9
003A7976 2019-02-22 15:01:28 21 13 19.7
003A7976 2019-02-22 14:51:00 20.9 13 19.7
003A7976 2019-02-22 14:40:34 21 13 19.7
003A7976 2019-02-22 14:30:09 20.9 13 19.7
003A7976 2019-02-22 14:19:42 20.9 13 19.7
003A7976 2019-02-22 13:58:48 20.9 13 19.4
003A7976 2019-02-22 13:48:21 20.9 13 19.3
003A7976 2019-02-22 13:37:56 20.8 13 19.3
003A7976 2019-02-22 13:27:25 20.8 13 19.1
003A7976 2019-02-22 13:16:58 20.8 13 19
003A7976 2019-02-22 13:06:31 20.8 13 19.1
003A7976 2019-02-22 12:56:04 20.8 13 19.1
003A7976 2019-02-22 12:45:37 20.8 13 19.1
003A7976 2019-02-22 12:35:12 20.8 13 16.3
003A7976 2019-02-22 12:24:43 20.8 13 16.4
003A7976 2019-02-22 12:14:15 20.7 13 16.7
003A7976 2019-02-22 12:03:48 20.7 13 16.6
003A7976 2019-02-22 11:53:21 20.7 13 16.8
003A7976 2019-02-22 11:42:54 20.7 13 16.3
003A7976 2019-02-22 11:32:27 20.7 13 16.1
003A7976 2019-02-22 11:22:00 20.7 13 16
003A7976 2019-02-22 11:11:01 20.6 13 16.2
003A7976 2019-02-22 10:40:02 20.5 13 15.8
003A7976 2019-02-22 10:08:57 20.5 13 15.7
003A7976 2019-02-22 09:37:56 20.5 13 15.8
003A7976 2019-02-22 09:06:53 20.5 13 15.8
003A7976 2019-02-22 08:35:48 20.5 13 15.8
003A7976 2019-02-22 08:04:45 20.5 13 15.8
003A7976 2019-02-22 07:33:43 20.6 13 16
003A7976 2019-02-22 07:02:42 20.5 13 16.2
003A7976 2019-02-22 06:31:38 20.6 13 16.3
003A7976 2019-02-22 06:00:36 20.6 13 16.3
003A7976 2019-02-22 05:29:33 20.6 13 16
003A7976 2019-02-22 04:58:30 20.6 13 16.2
003A7976 2019-02-22 04:27:29 20.6 13 16.4
003A7976 2019-02-22 03:56:24 20.6 13 19
003A7976 2019-02-22 03:25:20 20.6 13 20.7
003A7976 2019-02-22 02:54:17 20.7 13 21.9
003A7976 2019-02-22 02:23:12 20.7 13 22.9
003A7976 2019-02-22 01:52:10 20.7 13 23.7
003A7976 2019-02-22 01:21:08 20.7 14 24.3
003A7976 2019-02-22 00:50:03 20.7 13 24.3
003A7976 2019-02-22 00:19:00 20.7 14 24.2
003A7976 2019-02-21 23:47:58 20.8 14 24.2
003A7976 2019-02-21 23:16:53 20.8 14 24.2
003A7976 2019-02-21 22:45:51 20.8 14 24.2
003A7976 2019-02-21 22:14:47 20.9 14 24.2
003A7976 2019-02-21 21:43:41 20.9 14 24.2
003A7976 2019-02-21 21:12:36 20.9 14 24.2
003A7976 2019-02-21 20:41:32 21 14 24.2
003A7976 2019-02-21 20:10:28 21 14 24.2
003A7976 2019-02-21 19:39:24 21 14 24.2
003A7976 2019-02-21 19:08:23 21.1 14 24.3
003A7976 2019-02-21 18:37:19 21.1 14 24.2
003A7976 2019-02-21 18:06:15 21.2 14 24.2
003A7976 2019-02-21 17:35:08 21.2 14 24.2
003A7976 2019-02-21 17:04:02 21.1 15 24.2
003A7976 2019-02-21 16:32:59 21 15 24.3
003A7976 2019-02-21 15:30:51 20.8 15 24.2
003A7976 2019-02-21 14:28:46 20.7 15 24.3
003A7976 2019-02-21 13:57:40 20.7 15 23.6
003A7976 2019-02-21 13:26:36 20.7 15 22.8
003A7976 2019-02-21 12:55:34 20.7 16 21.8
003A7976 2019-02-21 12:24:30 20.7 16 20.6
003A7976 2019-02-21 11:53:27 20.7 16 18.9
003A7976 2019-02-21 11:22:23 20.7 17 15.9
003A7976 2019-02-21 10:51:22 20.7 17 15.8
003A7976 2019-02-21 10:20:17 20.7 17 16.1
003A7976 2019-02-21 09:49:18 20.7 17 16.1
003A7976 2019-02-21 09:17:32 20.7 18 16.2
003A7976 2019-02-21 08:46:26 20.7 18 16.8
003A7976 2019-02-21 08:15:23 20.7 18 17
003A7976 2019-02-21 07:44:19 20.7 19 17.2
003A7976 2019-02-21 07:13:15 20.7 19 17.3
003A7976 2019-02-21 06:42:12 20.7 19 17.2
003A7976 2019-02-21 06:11:06 20.7 19 17.4
003A7976 2019-02-21 05:40:02 20.7 19 17.4
003A7976 2019-02-21 05:08:58 20.7 19 17.1
003A7976 2019-02-21 04:37:55 20.7 19 17.2
003A7976 2019-02-21 04:06:52 20.8 20 17.2
003A7976 2019-02-21 03:35:49 20.8 20 17
003A7976 2019-02-21 03:04:48 20.8 20 17
003A7976 2019-02-21 02:33:42 20.8 20 16.8
003A7976 2019-02-21 02:02:40 20.8 20 19.4
003A7976 2019-02-21 01:31:35 20.8 20 19.2
003A7976 2019-02-21 01:00:34 20.8 20 20.9
003A7976 2019-02-21 00:29:28 20.8 21 22.1
003A7976 2019-02-20 23:58:24 20.8 21 22.2
003A7976 2019-02-20 23:27:21 20.8 21 22.1
003A7976 2019-02-20 22:56:18 20.8 21 22
003A7976 2019-02-20 22:25:16 20.8 21 23
003A7976 2019-02-20 21:54:13 20.9 21 23.1
003A7976 2019-02-20 21:23:11 20.9 21 23.1
003A7976 2019-02-20 20:52:07 20.9 21 23.2
003A7976 2019-02-20 20:21:03 20.9 21 23.2
003A7976 2019-02-20 19:50:00 20.9 21 23.1
003A7976 2019-02-20 19:18:57 20.9 21 23.1
003A7976 2019-02-20 18:47:54 20.9 21 23.1
003A7976 2019-02-20 18:16:49 20.9 21 23.1
003A7976 2019-02-20 17:45:47 20.9 22 23.2
003A7976 2019-02-20 17:14:41 20.9 22 23.3
003A7976 2019-02-20 16:43:37 20.9 23 23.3
003A7976 2019-02-20 16:12:34 20.9 23 23.3
003A7976 2019-02-20 15:41:33 20.9 23 23.4
003A7976 2019-02-20 15:10:25 20.9 23 23.4